Petros Papagiannopoulos

Scout - AEK
4 Apr 2028
Dienstag
Verarbeitung

Persönlichkeit

Anpassungsfähigkeit (10) Ehrgeiz (14) Kontroverse (17) Loyalität (4) Druck (4) Professionalität (9) Fairness (1) Temperament (16)

Profil

Trainerstil Demokratisch
Lizenz Nationale B
Entschlossenheit 14
Menschenführung 13
Motivation 7
Disziplin 15
Arbeitszufriedenheit
100%
Ermüdung
0%
Rolle Scout
Gehalt 64.3K p/W
Vertrag 14.03.2029

Leistung

Verhalten Gut
Trainingseffektivität
52%
Spielerentwicklung
75%
Verletzungsprävention
30%
Taktische Umsetzung
45%

Aktuell beobachtet

94
Spieler Verein Status Fähigkeit Vertrauen Beobachtet Zuletzt beobachtet Letzte Stimme
Jorge Berlanga Pachuca Aktiv 128 / 124 40% 1 24.01.2028 -
Tomás Jacob Atlanta United FC Aktiv 122 / 121 40% 1 24.01.2028 -
Tomás Silva Platense Aktiv 124 / 131 40% 1 24.01.2028 -
Mateo Castillo Real Cartagena Aktiv 128 / 127 40% 1 17.01.2028 -
Igor Jesus Los Angeles Football Club Aktiv 122 / 119 40% 1 17.01.2028 -
Ignacio Perruzzi San Lorenzo Aktiv 124 / 129 40% 1 17.01.2028 -
Santiago González Tigre Aktiv 132 / 130 40% 1 03.01.2028 -
Max Johnston Derby County Aktiv 134 / 135 40% 1 03.01.2028 -
Alexsander Atlético Mineiro Aktiv 136 / 134 40% 1 03.01.2028 -
Facundo Balatti Penarol Aktiv 100 / 108 40% 3 28.08.2027 -
Kenan Busuladžić Halmstad Aktiv 116 / 122 40% 1 28.08.2027 -
Afriyie Sulemana Hasaacas Aktiv 101 / 103 40% 1 28.08.2027 -
Drew Baiera New York City Aktiv 90 / 107 40% 1 27.08.2027 -
Mbekezeli Mbokazi Chicago Fire Aktiv 123 / 133 40% 4 26.08.2027 -
Luka Vušković Brighton Aktiv 145 / 153 40% 1 26.08.2027 -
Mattia Puzone Siracusa Aktiv 103 / 108 40% 2 18.08.2027 -
Jon Esenga IF Elfsborg Aktiv 94 / 101 40% 1 18.08.2027 -
Bence Szakos Aris Aktiv 96 / 101 40% 1 18.08.2027 -
Sascha Britschgi Fiorentina Aktiv 124 / 130 40% 2 14.08.2027 -
Isaiah Dada-Mascoll Cultural Leonesa Aktiv 100 / 106 40% 1 14.08.2027 -
Wilmar Borja La Equidad Aktiv 100 / 107 40% 2 12.08.2027 -
Adrian Skogmar Malmo FF Aktiv 119 / 125 40% 1 10.08.2027 -
Nnamdi Obafemi Remo Stars Aktiv 96 / 107 40% 1 10.08.2027 -
Joe Knight Stevenage Aktiv 103 / 111 40% 1 09.08.2027 -
Mattia Mannini Juve Stabia Aktiv 116 / 122 40% 2 05.08.2027 -
Jose Rodriguez La Equidad Aktiv 97 / 109 40% 1 04.08.2027 -
Ismaël Baouf Cambuur Aktiv 119 / 129 40% 1 04.08.2027 -
Simone Kosijer Triestina Aktiv 102 / 102 40% 1 27.07.2027 -
Mats Egbring Heerenveen Aktiv 102 / 111 40% 1 27.07.2027 -
Jacen Russell-Rowe Toulouse FC Aktiv 120 / 120 40% 2 24.07.2027 -
Otto Stange Hamburger SV Aktiv 120 / 126 40% 1 24.07.2027 -
Harvey Blair Portsmouth Aktiv 123 / 121 40% 2 20.07.2027 -
Rocco Vata Watford Aktiv 126 / 130 40% 1 19.07.2027 -
Moctar Diop KAA Gent Aktiv 123 / 124 40% 1 16.07.2027 -
Myron van Brederode KV Mechelen Aktiv 123 / 125 40% 1 14.07.2027 -
Dom Ballard Leyton Orient Aktiv 121 / 124 40% 2 08.07.2027 -
Stiven Shpendi Empoli Aktiv 125 / 121 40% 1 08.07.2027 -
Iwan Morgan Grimsby Town Aktiv 111 / 117 40% 1 05.07.2027 -
Tammer Kumar West Bromwich Albion Aktiv 121 / 125 40% 1 05.07.2027 -
Fabrizio Cavegn Bristol Rovers Aktiv 115 / 113 40% 1 05.07.2027 -
Fally Mayulu Arouca Aktiv 122 / 120 40% 1 03.07.2027 -
Agustín Venezia Iquique Aktiv 116 / 118 40% 1 03.07.2027 -
David Romero Parma Aktiv 125 / 130 40% 1 30.06.2027 -
José Neto Alverca Aktiv 113 / 126 40% 1 29.06.2027 -
Toni Tamarit Alverca Aktiv 115 / 127 40% 1 29.06.2027 -
Muhammadyusuf Sobirov Bunyodkor Aktiv 110 / 113 40% 1 26.06.2027 -
Luka Kolar Rudar Velenje Aktiv 108 / 115 40% 1 26.06.2027 -
Mauricio Amaro Atlanta United FC Aktiv 131 / 128 40% 3 24.06.2027 -
Teo Rodríguez Pagano San Lorenzo Aktiv 110 / 120 40% 1 24.06.2027 -
Benedek Erdélyi Debrecen Aktiv 101 / 104 40% 2 22.06.2027 -
Omar Mabkhout Al Ahli Aktiv 113 / 117 40% 2 20.06.2027 -
Ignacio Roldán Lanús Aktiv 89 / 99 40% 1 19.06.2027 -
Kevin Martínez Danubio Aktiv 95 / 104 40% 1 18.06.2027 -
Silas Huber Zurich Aktiv 119 / 128 40% 1 18.06.2027 -
Rafik el Arguioui Utrecht Aktiv 108 / 116 40% 1 07.06.2027 -
Marco Oroná Antofagasta Aktiv 95 / 106 40% 1 03.06.2027 -
Elie N'Gatta Sochaux Aktiv 94 / 98 40% 1 01.06.2027 -
Vinicius Tobias Shakhtar Aktiv 129 / 134 40% 1 30.01.2027 -
Juraj Badelj Aris Aktiv 116 / 119 40% 1 30.01.2027 -
Will Fish Cardiff City Aktiv 120 / 122 40% 1 30.01.2027 -
Kamogelo Sebelebele Orlando Pirates Aktiv 107 / 123 40% 1 29.01.2027 -
Brad Hills Stockport County Aktiv 119 / 120 40% 1 29.01.2027 -
Arsenii Batahov Trabzonspor Aktiv 131 / 130 40% 1 29.01.2027 -
Yerson Chacón AE Kition Aktiv 116 / 115 40% 1 28.01.2027 -
Tobías Cervera SonderjyskE Aktiv 123 / 112 40% 1 28.01.2027 -
Peter Federico Gornik Zabrze Aktiv 126 / 124 40% 1 28.01.2027 -
Bae Jun-Ho Stoke City Aktiv 127 / 126 40% 1 27.01.2027 -
Marlon Gomes Shakhtar Aktiv 133 / 139 40% 1 26.01.2027 -
Teden Mengi Luton Town Aktiv 125 / 124 40% 1 26.01.2027 -
Nikola Stanković Cukaricki Aktiv 114 / 110 40% 1 26.01.2027 -
Kelvin Flórez Udinese Aktiv 111 / 116 40% 1 24.01.2027 -
Romano Floriani Mussolini Avellino Aktiv 125 / 126 40% 1 22.01.2027 -
Ethan Pye Stockport County Aktiv 117 / 116 40% 1 22.01.2027 -
Morgan Manyama SuperSport United Aktiv 117 / 124 40% 1 19.01.2027 -
George Earthy Reading Aktiv 119 / 123 40% 2 18.01.2027 -
Malik Mothersille Stockport County Aktiv 116 / 114 40% 1 18.01.2027 -
Marvin Kaleta Rotherham United Aktiv 105 / 107 40% 2 17.01.2027 -
Bongani Mokotjo Ajax Cape Town Aktiv 110 / 116 40% 1 17.01.2027 -
Xavier Simons Bolton Wanderers Aktiv 120 / 119 40% 1 17.01.2027 -
Brodie Spencer Oxford United Aktiv 120 / 126 40% 1 16.01.2027 -
Mateja Milovanović Partizan Aktiv 118 / 122 40% 1 16.01.2027 -
Mduduzi Shabalala Kaizer Chiefs Aktiv 114 / 110 40% 1 12.01.2027 -
Cian Ashford Cardiff City Aktiv 119 / 118 40% 1 12.01.2027 -
Williams Furman Ajax Cape Town Aktiv 101 / 113 40% 1 10.01.2027 -
Marcus Ifill Bromley Aktiv 107 / 109 40% 1 10.01.2027 -
Mamadou Coulibaly Al Jazira Aktiv 127 / 121 40% 1 09.01.2027 -
Ryan Trevitt AFC Wimbledon Aktiv 110 / 120 40% 1 09.01.2027 -
Pedro Zenit Aktiv 131 / 141 40% 1 02.01.2027 -
Dro Paris Saint-Germain Aktiv 119 / 139 40% 1 01.01.2027 -
Konrad Michalak Panetolikos Aktiv 114 / 114 30% 1 / 1m 23.09.2026 -
Law McCabe Middlesbrough Aktiv 103 / 116 40% 1 19.08.2026 -
Eddie Salcedo OFI Aktiv 115 / 119 83% 1 17.08.2026 Befürworten
Jozhua Vertrouwd Rayo Vallecano Aktiv 119 / 124 40% 1 10.08.2026 -
Mamadou Sané Aris Aktiv 93 / 94 40% 1 03.08.2026 -